Beaufort MCAS, SC

1:34 PM EDT on March 29, 2017 (GMT -0400)
Beaufort Marine Corps Air Station

Weather History for KNBC - October, 2013

Change the Weather History Date:

Wednesday, October 23, 2013

  Actual Average Record
Temperature  
Mean Temperature 65 °F -  
Max Temperature 73 °F 76 °F 89 °F (2007)
Min Temperature 57 °F 56 °F 38 °F (1974)
Growing Degree Days 15 (Base 50)    
Moisture  
Dew Point 52 °F    
Average Humidity 69    
Maximum Humidity 97    
Minimum Humidity 29    
Precipitation  
Precipitation 0.00 in - - ()
Sea Level Pressure  
Sea Level Pressure 29.86 in    
Wind  
Wind Speed 7 mph (WNW)    
Max Wind Speed 15 mph    
Max Gust Speed 28 mph    
Visibility 9 miles    
Events      
Averages and records for this station are not official NWS values.
T = Trace of Precipitation, MM = Missing Value Source: NWS Daily Summary

Daily Weather History Graph

Daily Weather History Graph

Search for Another Location

Airport or City:

Trip Planner

Search our weather history database for the weather conditions in past years. The results will help you decide how hot, cold, wet, or windy it might be!

Date:

Astronomy

Oct. 23, 2013 Rise Set
Actual Time 7:32 AM EDT 6:40 PM EDT
Civil Twilight 7:07 AM EDT 7:05 PM EDT
Nautical Twilight 6:39 AM EDT 7:34 PM EDT
Astronomical Twilight 6:10 AM EDT 8:03 PM EDT
Moon 10:18 PM EDT (10/23) 11:40 AM EDT (10/23)
Length of Visible Light 11h 57m
Length of Day
11h 07m
Waning Gibbous, 79% of the Moon is Illuminated
Oct 23
Waning Gibbous
Oct 26
Last Quarter
Nov 3
New
Nov 10
First Quarter
Nov 17
Full

Hourly Weather History & Observations

Time (EDT) Temp. Dew Point Humidity Pressure Visibility Wind Dir Wind Speed Gust Speed Precip Events Conditions
12:56 AM 64.0 °F 62.1 °F 93% 29.83 in 10.0 mi South 3.5 mph - N/A   Overcast
1:56 AM 64.0 °F 61.0 °F 90% 29.83 in 10.0 mi WSW 3.5 mph - N/A   Overcast
2:56 AM 63.0 °F 62.1 °F 97% 29.83 in 7.0 mi NW 4.6 mph - N/A   Overcast
3:56 AM 63.0 °F 61.0 °F 93% 29.81 in 9.0 mi WNW 6.9 mph - N/A   Clear
4:56 AM 61.0 °F 60.1 °F 97% 29.80 in 9.0 mi WNW 6.9 mph - N/A   Clear
5:10 AM 61.0 °F 60.1 °F 97% 29.81 in 9.0 mi WNW 9.2 mph - N/A   Scattered Clouds
5:19 AM 62.1 °F 60.1 °F 93% 29.81 in 10.0 mi WNW 8.1 mph - N/A   Mostly Cloudy
5:35 AM 62.1 °F 60.1 °F 93% 29.81 in 8.0 mi WNW 8.1 mph - N/A   Overcast
5:56 AM 62.1 °F 60.1 °F 93% 29.82 in 8.0 mi NW 5.8 mph - N/A   Overcast
6:27 AM 62.1 °F 60.1 °F 93% 29.82 in 8.0 mi WNW 5.8 mph - N/A   Overcast
6:40 AM 62.1 °F 60.1 °F 93% 29.82 in 9.0 mi WNW 5.8 mph - N/A   Overcast
6:56 AM 61.0 °F 59.0 °F 93% 29.83 in 8.0 mi West 3.5 mph - N/A   Scattered Clouds
7:14 AM 62.1 °F 60.1 °F 93% 29.83 in 8.0 mi WNW 3.5 mph - N/A   Mostly Cloudy
7:56 AM 62.1 °F 60.1 °F 93% 29.83 in 7.0 mi West 6.9 mph - N/A   Scattered Clouds
8:56 AM 64.0 °F 60.1 °F 87% 29.86 in 10.0 mi WNW 9.2 mph - N/A   Scattered Clouds
9:56 AM 64.9 °F 55.9 °F 73% 29.86 in 10.0 mi WNW 10.4 mph 20.7 mph N/A   Partly Cloudy
10:56 AM 66.9 °F 54.0 °F 63% 29.87 in 10.0 mi NW 9.2 mph - N/A   Partly Cloudy
11:56 AM 70.0 °F 48.9 °F 47% 29.86 in 10.0 mi WNW 15.0 mph 23.0 mph N/A   Partly Cloudy
12:56 PM 72.0 °F 46.9 °F 41% 29.85 in 10.0 mi WNW 12.7 mph 21.9 mph N/A   Partly Cloudy
1:56 PM 72.0 °F 45.0 °F 38% 29.83 in 10.0 mi NW 15.0 mph 27.6 mph N/A   Scattered Clouds
2:56 PM 73.0 °F 46.0 °F 38% 29.82 in 10.0 mi WNW 13.8 mph 24.2 mph N/A   Partly Cloudy
3:56 PM 73.0 °F 41.0 °F 31% 29.82 in 10.0 mi NW 15.0 mph 23.0 mph N/A   Clear
4:56 PM 72.0 °F 37.9 °F 29% 29.84 in 10.0 mi WNW 12.7 mph - N/A   Clear
5:56 PM 70.0 °F 37.9 °F 31% 29.86 in 10.0 mi NW 11.5 mph - N/A   Clear
6:56 PM 64.0 °F 39.9 °F 41% 29.89 in 10.0 mi WNW 6.9 mph - N/A   Clear
7:56 PM 61.0 °F 39.9 °F 46% 29.92 in 10.0 mi WNW 5.8 mph - N/A   Clear
8:56 PM 59.0 °F 39.0 °F 48% 29.96 in 10.0 mi NW 5.8 mph - N/A   Clear
9:56 PM 57.9 °F 39.0 °F 49% 29.99 in 10.0 mi NW 5.8 mph - N/A   Clear
10:56 PM 57.9 °F 37.9 °F 47% 30.03 in 10.0 mi NW 10.4 mph - N/A   Clear
11:56 PM 57.0 °F 37.9 °F 49% 30.05 in 10.0 mi NNW 10.4 mph - N/A   Clear